Pocatello, ID

5:01 PM MDT on April 23, 2017 (GMT -0600)
Pocatello Regional

Weather History for KPIH - September, 2014

Change the Weather History Date:

Wednesday, September 24, 2014

  Actual Average Record
Temperature  
Mean Temperature 70 °F 55 °F  
Max Temperature 89 °F 72 °F 91 °F (2001)
Min Temperature 51 °F 39 °F 22 °F (2000)
Degree Days  
Heating Degree Days 0 10  
Month to date heating degree days 95 137  
Since 1 July heating degree days 130 183  
Cooling Degree Days 5 0  
Month to date cooling degree days 31 20  
Year to date cooling degree days 417 390  
Growing Degree Days 20 (Base 50)    
Moisture  
Dew Point 44 °F    
Average Humidity 53    
Maximum Humidity 89    
Minimum Humidity 17    
Precipitation  
Precipitation 0.00 in 0.03 in 0.09 in (1973)
Month to date precipitation 0.36 0.66  
Year to date precipitation 9.14 8.73  
Snow  
Snow 0.00 in - - ()
Month to date snowfall 0.0  
Since 1 July snowfall 0.0  
Since 1 September snowfall 0.0  
Snow Depth 0.00 in    
Sea Level Pressure  
Sea Level Pressure 29.96 in    
Wind  
Wind Speed 8 mph (South)    
Max Wind Speed 25 mph    
Max Gust Speed 32 mph    
Visibility 10 miles    
Events      
T = Trace of Precipitation, MM = Missing Value Source: NWS Daily Summary

Daily Weather History Graph

Daily Weather History Graph

Search for Another Location

Airport or City:

Trip Planner

Search our weather history database for the weather conditions in past years. The results will help you decide how hot, cold, wet, or windy it might be!

Date:

Astronomy

Sep. 24, 2014 Rise Set
Actual Time 7:19 AM MDT 7:23 PM MDT
Civil Twilight 6:51 AM MDT 7:52 PM MDT
Nautical Twilight 6:18 AM MDT 8:25 PM MDT
Astronomical Twilight 5:44 AM MDT 8:58 PM MDT
Moon 7:45 AM MDT (9/24) 7:35 PM MDT (9/24)
Length of Visible Light 13h 00m
Length of Day
12h 04m
New Moon, 0% of the Moon is Illuminated
Sep 24
New Moon
Oct 1
First Quarter
Oct 8
Full
Oct 15
Last Quarter
Oct 23
New

Hourly Weather History & Observations

Time (MDT) Temp. Dew Point Humidity Pressure Visibility Wind Dir Wind Speed Gust Speed Precip Events Conditions
12:53 AM 69.1 °F 46.0 °F 44% 29.95 in 10.0 mi Variable 3.5 mph - N/A   Clear
1:53 AM 69.1 °F 46.0 °F 44% 29.96 in 10.0 mi ENE 6.9 mph - N/A   Clear
2:53 AM 64.0 °F 46.9 °F 54% 29.96 in 10.0 mi Variable 3.5 mph - N/A   Clear
3:53 AM 62.1 °F 46.9 °F 58% 29.96 in 10.0 mi Calm Calm - N/A   Clear
4:53 AM 55.9 °F 48.9 °F 77% 29.98 in 10.0 mi Calm Calm - N/A   Clear
5:53 AM 54.0 °F 50.0 °F 86% 30.00 in 10.0 mi NW 5.8 mph - N/A   Clear
6:53 AM 53.1 °F 48.0 °F 83% 30.01 in 10.0 mi North 6.9 mph - N/A   Clear
7:53 AM 52.0 °F 48.9 °F 89% 30.03 in 10.0 mi North 3.5 mph - N/A   Clear
8:53 AM 61.0 °F 51.1 °F 70% 30.02 in 10.0 mi NNW 3.5 mph - N/A   Clear
9:53 AM 72.0 °F 48.9 °F 44% 30.01 in 10.0 mi North 3.5 mph - N/A   Clear
10:53 AM 79.0 °F 45.0 °F 30% 29.99 in 10.0 mi Calm Calm - N/A   Clear
11:53 AM 84.0 °F 45.0 °F 25% 29.96 in 10.0 mi Variable 5.8 mph - N/A   Clear
12:26 PM 87.1 °F 42.1 °F 21% 30.11 in 10.0 mi South 18.4 mph 26.5 mph N/A   Clear
12:53 PM 87.1 °F 42.1 °F 21% 29.95 in 10.0 mi South 21.9 mph 26.5 mph N/A   Clear
1:53 PM 89.1 °F 39.0 °F 17% 29.92 in 10.0 mi South 19.6 mph 27.6 mph N/A   Partly Cloudy
2:53 PM 89.1 °F 39.9 °F 18% 29.92 in 10.0 mi South 20.7 mph 29.9 mph N/A   Partly Cloudy
3:53 PM 88.0 °F 39.9 °F 18% 29.91 in 10.0 mi South 13.8 mph 27.6 mph N/A   Partly Cloudy
4:53 PM 88.0 °F 37.0 °F 16% 29.91 in 10.0 mi SSW 16.1 mph 24.2 mph N/A   Clear
5:53 PM 86.0 °F 37.9 °F 18% 29.91 in 10.0 mi South 16.1 mph 20.7 mph N/A   Clear
6:53 PM 82.0 °F 37.0 °F 20% 29.90 in 10.0 mi South 10.4 mph - N/A   Clear
7:53 PM 79.0 °F 37.9 °F 23% 29.92 in 10.0 mi Variable 6.9 mph - N/A   Clear
8:53 PM 73.0 °F 39.9 °F 30% 29.93 in 10.0 mi ESE 3.5 mph - N/A   Clear
9:53 PM 68.0 °F 39.9 °F 36% 29.92 in 10.0 mi SE 3.5 mph - N/A   Clear
10:53 PM 64.9 °F 41.0 °F 42% 29.91 in 10.0 mi South 6.9 mph - N/A   Clear
11:53 PM 60.1 °F 43.0 °F 53% 29.90 in 10.0 mi ENE 5.8 mph - N/A   Clear